Location: *
(39.6167°S, 171.5333°W)
Time: 23:28:47
(UTC+00:00)

Timation 2 Rocket - Pass Details

Date: 13 May 2021
Orbit: 907 x 1074 km, 70.0° (Epoch: 15 June)

Event Time Altitude Azimuth Distance (km) Brightness Sun altitude
Exits shadow 15:45:57 78° 348° (NNW) 1,046 4.0 -30.1°
Maximum altitude 15:46:27 88° 65° (ENE) 1,030 4.0 -30.0°
Drops below altitude 10° 15:53:15 10° 155° (SSE) 2,884 6.7 -28.7°
Sets 15:55:55 0° 155° (SSE) 3,862 7.4 -28.2°
